Regional Weather Roundup
Issued by NWS

Home | Current Version | Previous Version | Graphics & Text | Print | Product List | Glossary On
Versions: 1 2 3 4 5 6 7 8 9 10 11 12 13 14 15 16 17 18 19 20 21 22 23 24 25 26 27 28 29 30 31 32 33 34 35 36 37 38 39 40 41 42 43 44 45 46 47 48 49 50
959
ASUS43 KLOT 051208
RWRIL

ILLINOIS REGIONAL WEATHER ROUNDUP
NATIONAL WEATHER SERVICE CHICAGO/ROMEOVILLE IL
600 AM CST MON DEC 05 2016

NOTE: "FAIR" INDICATES FEW OR NO CLOUDS BELOW 12,000 FEET WITH NO
SIGNIFICANT WEATHER AND/OR OBSTRUCTIONS TO VISIBILITY.

* THESE STATIONS ARE NOT UNDER NWS QUALITY CONTROL. THEY ALSO MAY NOT
  REPORT WEATHER SUCH AS PRECIPITATION OR FOG.

ILZ001-002-007-009-015-016-024-051300-
NORTHWEST ILLINOIS

CITY           SKY/WX    TMP DP  RH WIND       PRES   REMARKS
MOLINE         CLOUDY    33  30  88 SW6       29.98F FOG     WCI  28
6HR MIN TEMP:  33; 6HR MAX TEMP:  35;

STERLING*      CLOUDY    32  31  96 SW5       30.00S WCI  27
SAVANNA*       CLOUDY    33  32  96 SW8       29.99R FOG     WCI  26
$$

ILZ003-004-008-010-011-017-018-051300-
NORTH CENTRAL ILLINOIS

CITY           SKY/WX    TMP DP  RH WIND       PRES   REMARKS
ROCKFORD       CLOUDY    33  31  92 SW7       30.00S FOG     WCI  27
6HR MIN TEMP:  32; 6HR MAX TEMP:  34;

FREEPORT*      CLOUDY    32  31  98 SW9       29.99R FOG     WCI  24
ROCHELLE*      CLOUDY    32  31  98 SW10      30.00S FOG     WCI  24
DE KALB*       CLOUDY    32  31  96 SW7       29.99F FOG     WCI  26
$$

ILZ005-006-012>014-019>023-051300-
NORTHEAST ILLINOIS

CITY           SKY/WX    TMP DP  RH WIND       PRES   REMARKS
CHICAGO-OHARE  CLOUDY    33  31  92 W10       29.99F WCI  25
6HR MIN TEMP:  32; 6HR MAX TEMP:  33;

CHICAGO-MIDWAY CLOUDY    34  30  85 W5        30.00F WCI  30
6HR MIN TEMP:  33; 6HR MAX TEMP:  34;

AURORA         CLOUDY    34  31  88 SW7       30.00S FOG     WCI  28
6HR MIN TEMP:  33; 6HR MAX TEMP:  34;

LANSING*       CLOUDY    32  32 100 W3        30.02R
JOLIET*        CLOUDY    33  32  94 SW3       30.02S
WAUKEGAN       CLOUDY    32  31  96 VRB5      29.98R WCI  27
6HR MIN TEMP:  32; 6HR MAX TEMP:  33;

DUPAGE AIRPORT CLOUDY    33  30  88 SW6       29.98F WCI  28
6HR MIN TEMP:  33; 6HR MAX TEMP:  33;

KANKAKEE*      CLOUDY    32  31  97 CALM      30.04R
WHEELING       CLOUDY    33  30  88 W6        30.01R WCI  28
6HR MIN TEMP:  32; 6HR MAX TEMP:  33;

MORRIS*        CLOUDY    32  31  94 SW6       30.01R WCI  27
ROMEOVILLE*    CLOUDY    32  32 100 W3        30.01S
NORTHERLY ISL    N/A     34  30  86 W9          N/A  WCI  27
$$

LMZ740>746-051300-
SOUTHERN LAKE MICHIGAN

STATION/POSITION SKY/WX   TEMP    WIND        PRES    VSBY  WAVE
                          AIR SEA DIR/SP/G                  HT/PER
                          (F)     (DEG/KT/KT) (MB)    (MI)  (FT/S)
HARRISON CRIB              35     250/ 14/ 17   N/A
BURNHAM HARBOR             34     250/  8/ 12   N/A
CALUMET HARBOR             33     230/  5/ 10 1015.6F
BURNS HARBOR               34     230/  9/ 11 1016.9S
$$

ILZ025>027-034>036-040-047-049-050-058-095>099-051300-
WEST-CENTRAL ILLINOIS

CITY           SKY/WX    TMP DP  RH WIND       PRES   REMARKS
QUINCY         FOG       31  31 100 SE8       30.00R VSB 1/4 WCI  23
GALESBURG*     FOG       32  32 100 CALM      29.99S VSB 1/4
MACOMB*        FOG       32  32 100 CALM      30.01F VSB 1/4
JACKSONVILLE*  CLOUDY    34  33  95 SE6       30.03R WCI  29
PITTSFIELD*    FOG       32  32 100 S5        30.02S VSB 1/4 WCI  27
$$

ILZ028>032-037-038-041>044-048-051>054-059>061-051300-
CENTRAL ILLINOIS

CITY           SKY/WX    TMP DP  RH WIND       PRES   REMARKS
PONTIAC        CLOUDY    32  32 100 SW6       30.04R WCI  27
BLOOMINGTON    FOG       31  30  96 SW8       30.03S VSB 1   WCI  23
DECATUR        CLOUDY    33  30  88 SW5       30.05S WCI  29
PEORIA         CLOUDY    33  33 100 S3        30.02F FOG
6HR MIN TEMP:  32; 6HR MAX TEMP:  34;

LACON*         CLOUDY    31  31  99 S7        30.02S WCI  25
LINCOLN*       CLOUDY    35  34  96 S3        30.03S
SPRINGFIELD    FOG       35  34  96 S8        30.04S VSB 1/2 WCI  29
6HR MIN TEMP:  34; 6HR MAX TEMP:  36;

TAYLORVILLE    CLOUDY    34  34  99 S5        30.05S FOG     WCI  30
6HR MIN TEMP:  33; 6HR MAX TEMP:  34;

$$

ILZ033-039-045-046-055>057-062-063-051300-
EAST-CENTRAL ILLINOIS

CITY           SKY/WX    TMP DP  RH WIND       PRES   REMARKS
CHAMPAIGN      CLOUDY    33  30  88 S8        30.05F WCI  26
RANTOUL*       CLOUDY    33  32  95 SW7       30.05S WCI  27
MATTOON        CLOUDY    34  30  85 SW3       30.05S
PARIS*         CLOUDY    34  32  93 SW5       30.08S WCI  30
$$

ILZ079-100>102-051300-
SOUTHWEST ILLINOIS

CITY           SKY/WX    TMP DP  RH WIND       PRES   REMARKS
ALTON          CLOUDY    35  34  96 CALM      30.05S
BELLEVILLE     CLOUDY    37  37  99 SE2       30.05S
CAHOKIA*       CLOUDY    37  33  85 CALM      30.05S
SPARTA*        CLOUDY    36  34  92 SE3       30.06F
$$

ILZ064>066-069>071-074>076-080>082-084>086-088>090-092>094-051300-
SOUTH-CENTRAL ILLINOIS

CITY           SKY/WX    TMP DP  RH WIND       PRES   REMARKS
CARBONDALE     CLOUDY    33  33 100 CALM      30.07F
6HR MIN TEMP:  33; 6HR MAX TEMP:  40;

CAIRO*         PTCLDY    33  32  98 CALM      30.07R
EFFINGHAM*     CLOUDY    35  34  95 CALM      30.08S
MARION         CLOUDY    36  34  93 CALM      30.07S
CENTRALIA*     CLOUDY    37  35  90 CALM      30.06S FOG
SALEM*         CLOUDY    37  33  83 CALM      30.07S
METROPOLIS*    CLOUDY    34  33  96 CALM      30.08R
$$

ILZ067-068-072-073-078-083-087-091-051300-
SOUTHEAST ILLINOIS

CITY           SKY/WX    TMP DP  RH WIND       PRES   REMARKS
LAWRENCEVILLE  CLOUDY    36  32  85 CALM      30.10R
FLORA*         CLOUDY    37  33  85 S5        30.08S WCI  34
FAIRFIELD*     CLOUDY    36  32  85 CALM      30.07S
HARRISBURG*    CLOUDY    37  33  85 NE3       30.08S
ROBINSON*      CLOUDY    34  32  92 CALM      30.09F
CARMI*         CLOUDY    37  32  82 CALM      30.07F
$$

ABBREVIATIONS USED IN REMARKS
   TC - TEMPERATURE IN CELSIUS
  WCI - WIND CHILL INDEX
   HX - HEAT INDEX
  VSB - VISIBILITY
$$





USA.gov is the U.S. government's official web portal to all federal, state and local government web resources and services.